TimeEST,TemperatureF,Dew PointF,Humidity,Sea Level PressureIn,VisibilityMPH,Wind Direction,Wind SpeedMPH,Gust SpeedMPH,PrecipitationIn,Events,Conditions,WindDirDegrees,DateUTC
12:53 AM,42.1,41.0,96,29.90,4.0,Calm,Calm,-,0.02,Rain,Light Rain,0,2012-12-08 05:53:00
1:53 AM,43.0,41.0,93,29.88,5.0,Calm,Calm,-,0.02,Rain,Light Rain,0,2012-12-08 06:53:00
2:10 AM,42.8,41.0,93,29.86,5.0,ENE,3.5,-,0.01,Rain,Light Rain,70,2012-12-08 07:10:00
2:42 AM,42.8,42.8,100,29.86,6.0,Calm,Calm,-,0.01,,Overcast,0,2012-12-08 07:42:00
2:53 AM,43.0,42.1,97,29.87,7.0,ENE,4.6,-,0.01,,Overcast,60,2012-12-08 07:53:00
3:13 AM,42.8,41.0,93,29.85,6.0,ENE,3.5,-,0.00,Rain,Light Rain,70,2012-12-08 08:13:00
3:53 AM,43.0,42.1,97,29.84,5.0,ENE,3.5,-,0.00,Rain,Light Rain,60,2012-12-08 08:53:00
4:30 AM,42.8,41.0,93,29.82,6.0,Calm,Calm,-,0.01,,Overcast,0,2012-12-08 09:30:00
4:53 AM,43.0,41.0,93,29.83,6.0,Calm,Calm,-,0.01,,Overcast,0,2012-12-08 09:53:00
5:46 AM,42.8,42.8,100,29.81,3.0,Calm,Calm,-,0.00,Rain,Light Rain,0,2012-12-08 10:46:00
6:08 AM,42.8,42.8,100,29.81,3.0,ENE,3.5,-,0.00,,Overcast,70,2012-12-08 11:08:00
6:17 AM,42.8,42.8,100,29.81,2.5,Calm,Calm,-,0.01,Rain,Light Rain,0,2012-12-08 11:17:00
6:26 AM,42.8,42.8,100,29.81,3.0,Calm,Calm,-,0.01,,Overcast,0,2012-12-08 11:26:00
6:53 AM,43.0,42.1,97,29.82,3.0,Calm,Calm,-,0.01,,Overcast,0,2012-12-08 11:53:00
7:07 AM,42.8,42.8,100,29.81,2.5,Calm,Calm,-,0.01,Rain,Light Rain,0,2012-12-08 12:07:00
7:38 AM,42.8,42.8,100,29.79,3.0,Calm,Calm,-,0.03,Rain,Light Rain,0,2012-12-08 12:38:00
7:53 AM,43.0,42.1,97,29.80,3.0,Calm,Calm,-,0.03,,Overcast,0,2012-12-08 12:53:00
8:04 AM,42.8,42.8,100,29.79,2.5,Calm,Calm,-,N/A,,Overcast,0,2012-12-08 13:04:00
8:35 AM,42.8,42.8,100,29.78,1.8,Calm,Calm,-,0.00,Rain,Light Rain,0,2012-12-08 13:35:00
8:50 AM,44.6,42.8,93,29.77,1.8,Calm,Calm,-,0.00,,Overcast,0,2012-12-08 13:50:00
8:53 AM,44.1,43.0,96,29.79,1.8,Calm,Calm,-,0.00,,Overcast,0,2012-12-08 13:53:00
9:09 AM,44.6,42.8,93,29.77,2.5,Calm,Calm,-,N/A,,Overcast,0,2012-12-08 14:09:00
9:33 AM,44.6,42.8,93,29.78,3.0,Calm,Calm,-,N/A,,Overcast,0,2012-12-08 14:33:00
9:53 AM,46.0,44.1,93,29.80,9.0,SSW,5.8,-,N/A,,Overcast,210,2012-12-08 14:53:00
10:08 AM,46.4,44.6,93,29.79,2.0,SSW,5.8,-,N/A,,Overcast,210,2012-12-08 15:08:00
10:13 AM,46.4,46.4,100,29.79,3.0,SW,4.6,-,N/A,,Overcast,220,2012-12-08 15:13:00
10:27 AM,46.4,46.4,100,29.79,1.8,SW,3.5,-,N/A,,Overcast,230,2012-12-08 15:27:00
10:40 AM,48.2,46.4,93,29.78,3.0,SW,5.8,-,N/A,,Overcast,230,2012-12-08 15:40:00
10:53 AM,48.0,46.9,96,29.80,4.0,WSW,11.5,18.4,N/A,,Overcast,240,2012-12-08 15:53:00
11:02 AM,48.2,46.4,93,29.79,1.8,WSW,11.5,20.7,N/A,,Overcast,240,2012-12-08 16:02:00
11:09 AM,48.2,46.4,93,29.79,1.0,WSW,15.0,-,N/A,,Overcast,240,2012-12-08 16:09:00
11:16 AM,48.2,46.4,93,29.78,0.8,WSW,15.0,20.7,N/A,,Overcast,240,2012-12-08 16:16:00
11:53 AM,46.0,45.0,96,29.82,0.8,West,6.9,-,N/A,,Mist,270,2012-12-08 16:53:00
12:25 PM,44.6,42.8,93,29.81,1.0,Calm,Calm,-,N/A,,Overcast,0,2012-12-08 17:25:00
12:53 PM,44.1,43.0,96,29.83,0.8,West,5.8,-,N/A,,Overcast,260,2012-12-08 17:53:00
1:34 PM,44.6,42.8,93,29.81,1.2,WSW,4.6,-,0.00,Rain,Light Rain,250,2012-12-08 18:34:00
1:53 PM,45.0,44.1,97,29.83,1.8,WNW,3.5,-,0.01,Rain,Light Rain,290,2012-12-08 18:53:00
2:04 PM,44.6,44.6,100,29.82,2.5,West,4.6,-,0.00,,Overcast,270,2012-12-08 19:04:00
2:11 PM,44.6,42.8,93,29.82,3.0,West,5.8,-,0.00,,Overcast,280,2012-12-08 19:11:00
2:41 PM,44.6,44.6,100,29.84,2.5,West,3.5,-,0.00,,Overcast,270,2012-12-08 19:41:00
2:53 PM,44.1,43.0,96,29.86,2.0,WNW,5.8,-,0.00,,Overcast,290,2012-12-08 19:53:00
3:05 PM,44.6,42.8,93,29.85,1.8,West,3.5,-,N/A,,Overcast,270,2012-12-08 20:05:00
3:53 PM,44.1,43.0,96,29.88,1.0,WSW,4.6,-,0.01,Rain,Light Rain,250,2012-12-08 20:53:00
4:06 PM,44.6,42.8,93,29.88,1.5,WSW,4.6,-,0.02,Rain,Light Rain,250,2012-12-08 21:06:00
4:22 PM,44.6,44.6,100,29.89,2.0,West,4.6,-,0.03,Rain,Light Rain,270,2012-12-08 21:22:00
4:31 PM,44.6,44.6,100,29.90,1.8,West,8.1,-,0.05,Rain,Light Rain,270,2012-12-08 21:31:00
4:40 PM,44.6,44.6,100,29.91,3.0,West,9.2,-,0.05,Rain,Light Rain,270,2012-12-08 21:40:00
4:53 PM,45.0,44.1,97,29.93,3.0,West,5.8,-,0.07,Rain,Light Rain,280,2012-12-08 21:53:00
5:35 PM,42.8,41.0,93,29.95,7.0,NNW,10.4,-,0.03,Rain,Light Rain,330,2012-12-08 22:35:00
5:53 PM,41.0,39.0,93,29.97,10.0,NW,12.7,-,0.03,,Overcast,320,2012-12-08 22:53:00
6:06 PM,41.0,39.2,93,29.97,10.0,NW,8.1,-,N/A,,Overcast,310,2012-12-08 23:06:00
6:14 PM,41.0,39.2,93,29.98,9.0,NW,9.2,17.3,N/A,,Overcast,320,2012-12-08 23:14:00
6:38 PM,41.0,39.2,93,29.99,9.0,NW,5.8,-,N/A,,Overcast,320,2012-12-08 23:38:00
6:53 PM,41.0,39.0,93,30.02,5.0,NW,3.5,-,N/A,,Overcast,320,2012-12-08 23:53:00
7:04 PM,41.0,37.4,87,30.02,8.0,NW,8.1,-,N/A,,Overcast,320,2012-12-09 00:04:00
7:53 PM,39.0,35.1,86,30.07,10.0,NNW,8.1,-,N/A,,Overcast,340,2012-12-09 00:53:00
8:53 PM,39.0,34.0,82,30.10,10.0,NNW,8.1,-,N/A,,Overcast,330,2012-12-09 01:53:00
9:53 PM,37.9,32.0,79,30.13,10.0,NW,9.2,-,N/A,,Overcast,320,2012-12-09 02:53:00
10:53 PM,37.0,30.0,76,30.15,10.0,NNW,8.1,-,N/A,,Overcast,330,2012-12-09 03:53:00
11:53 PM,37.0,30.0,76,30.17,10.0,North,6.9,-,N/A,,Overcast,10,2012-12-09 04:53:00